When you browse on this site, cookies collect data to enhance your experience and personalize the content and advertising you see.
Visit our Privacy Policy to learn more. By continuing to use the site, you agree to this use of cookies and data.
  • In United Kingdom
  • List of Countries
  • For 7 days
  • Water Temperature
  • Satellite Maps
  • Weather Map
  • Weather Widgets
  • user-avatar
    Login

    Hourly Weather Holo

    Today, 22 May, Wednesday

    Time Temperature Precipitation Wind Pressure Humidity
    00:00 +29°C° 0.1 mm 3 mps 735 mmHg 81%
    01:00 +28°C° 0.1 mm 3 mps 735 mmHg 82%
    02:00 +28°C° 0 mm 3 mps 735 mmHg 84%
    03:00 +28°C° 0.2 mm 3 mps 735 mmHg 85%
    04:00 +28°C° 0.2 mm 3 mps 735 mmHg 86%
    05:00 +28°C° 0.2 mm 3 mps 735 mmHg 87%
    06:00 +29°C° 0.2 mm 3 mps 735 mmHg 84%
    07:00 +30°C° 0.2 mm 3 mps 735 mmHg 80%
    08:00 +30°C° 0 mm 4 mps 736 mmHg 77%
    09:00 +32°C° 0.1 mm 4 mps 736 mmHg 73%
    10:00 +33°C° 0.1 mm 3 mps 736 mmHg 68%
    11:00 +34°C° 0.1 mm 3 mps 735 mmHg 64%
    12:00 +34°C° 0 mm 3 mps 735 mmHg 62%
    13:00 +34°C° 0 mm 3 mps 735 mmHg 60%
    14:00 +34°C° 0 mm 4 mps 734 mmHg 59%
    15:00 +34°C° 0 mm 3 mps 734 mmHg 61%
    16:00 +33°C° 0 mm 3 mps 734 mmHg 63%
    17:00 +33°C° 0 mm 3 mps 734 mmHg 65%
    18:00 +31°C° 0 mm 2 mps 735 mmHg 68%
    19:00 +30°C° 0 mm 2 mps 735 mmHg 71%
    20:00 +29°C° 0 mm 2 mps 735 mmHg 75%
    21:00 +29°C° 0 mm 2 mps 736 mmHg 76%
    22:00 +29°C° 0 mm 1 mps 736 mmHg 78%
    23:00 +28°C° 0 mm 1 mps 736 mmHg 79%

    Tomorrow, 23 May, Thursday

    Time Temperature Precipitation Wind Pressure Humidity
    00:00 +28°C° 0 mm 1 mps 736 mmHg 80%
    01:00 +28°C° 0 mm 1 mps 735 mmHg 82%
    02:00 +28°C° 0 mm 1 mps 735 mmHg 83%
    03:00 +28°C° 0.1 mm 1 mps 735 mmHg 84%
    04:00 +28°C° 0.1 mm 1 mps 735 mmHg 85%
    05:00 +28°C° 0.1 mm 1 mps 735 mmHg 86%
    06:00 +29°C° 0.4 mm 1 mps 735 mmHg 82%
    07:00 +30°C° 0.4 mm 1 mps 736 mmHg 78%
    08:00 +31°C° 0.4 mm 1 mps 736 mmHg 74%
    09:00 +32°C° 0.1 mm 1 mps 736 mmHg 70%
    10:00 +32°C° 0.1 mm 1 mps 736 mmHg 65%
    11:00 +33°C° 0.1 mm 1 mps 736 mmHg 61%
    12:00 +34°C° 0.1 mm 2 mps 735 mmHg 62%
    13:00 +34°C° 0.1 mm 2 mps 735 mmHg 63%
    14:00 +34°C° 0.1 mm 2 mps 735 mmHg 65%
    15:00 +32°C° 0.4 mm 2 mps 735 mmHg 68%
    16:00 +31°C° 0.4 mm 2 mps 735 mmHg 71%
    17:00 +31°C° 0.4 mm 2 mps 735 mmHg 74%
    18:00 +30°C° 1.4 mm 1 mps 735 mmHg 77%
    19:00 +29°C° 1.4 mm 1 mps 735 mmHg 79%
    20:00 +29°C° 1.4 mm 1 mps 735 mmHg 82%
    21:00 +29°C° 1.8 mm 1 mps 736 mmHg 83%
    22:00 +28°C° 1.8 mm 1 mps 736 mmHg 84%
    23:00 +28°C° 1.8 mm 2 mps 736 mmHg 85%

    Day after tomorrow, 24 May, Friday

    Time Temperature Precipitation Wind Pressure Humidity
    00:00 +28°C° 2.7 mm 2 mps 736 mmHg 85%
    01:00 +28°C° 2.7 mm 2 mps 735 mmHg 86%
    02:00 +28°C° 2.7 mm 2 mps 735 mmHg 86%
    03:00 +28°C° 2.3 mm 2 mps 735 mmHg 86%
    04:00 +27°C° 2.3 mm 2 mps 735 mmHg 86%
    05:00 +27°C° 2.3 mm 2 mps 735 mmHg 86%
    06:00 +28°C° 2 mm 2 mps 735 mmHg 85%
    07:00 +29°C° 2 mm 2 mps 736 mmHg 83%
    08:00 +29°C° 2 mm 2 mps 736 mmHg 81%
    09:00 +30°C° 0.2 mm 2 mps 736 mmHg 76%
    10:00 +31°C° 0.2 mm 1 mps 736 mmHg 70%
    11:00 +32°C° 0.2 mm 1 mps 736 mmHg 64%
    12:00 +32°C° 0.1 mm 1 mps 736 mmHg 67%
    13:00 +32°C° 0.1 mm 2 mps 735 mmHg 70%
    14:00 +31°C° 0.1 mm 2 mps 735 mmHg 72%
    15:00 +31°C° 0.9 mm 3 mps 734 mmHg 75%
    16:00 +30°C° 0.9 mm 3 mps 734 mmHg 78%
    17:00 +29°C° 0.9 mm 3 mps 734 mmHg 80%
    18:00 +29°C° 0.3 mm 3 mps 735 mmHg 82%
    19:00 +28°C° 0.3 mm 3 mps 735 mmHg 83%
    20:00 +28°C° 0.3 mm 4 mps 735 mmHg 84%
    21:00 +28°C° 0.9 mm 4 mps 736 mmHg 85%
    22:00 +28°C° 0.9 mm 4 mps 736 mmHg 86%
    23:00 +28°C° 0.9 mm 4 mps 736 mmHg 87%

    25 May, Saturday

    Time Temperature Precipitation Wind Pressure Humidity
    00:00 +27°C° 1.2 mm 4 mps 735 mmHg 87%
    01:00 +27°C° 1.2 mm 4 mps 735 mmHg 87%
    02:00 +27°C° 1.2 mm 4 mps 734 mmHg 88%
    03:00 +27°C° 3.2 mm 4 mps 734 mmHg 88%
    04:00 +27°C° 3.2 mm 4 mps 734 mmHg 88%
    05:00 +27°C° 3.2 mm 4 mps 734 mmHg 88%
    06:00 +28°C° 0.7 mm 4 mps 735 mmHg 87%
    07:00 +28°C° 0.7 mm 4 mps 735 mmHg 85%
    08:00 +29°C° 0.7 mm 4 mps 736 mmHg 84%
    09:00 +30°C° 0 mm 3 mps 736 mmHg 76%
    10:00 +32°C° 0 mm 2 mps 736 mmHg 69%
    11:00 +34°C° 0 mm 2 mps 736 mmHg 61%
    12:00 +34°C° 0 mm 2 mps 735 mmHg 61%
    13:00 +34°C° 0 mm 2 mps 735 mmHg 61%
    14:00 +34°C° 0 mm 2 mps 734 mmHg 61%
    15:00 +31°C° 0.4 mm 3 mps 734 mmHg 68%
    16:00 +30°C° 0.4 mm 3 mps 734 mmHg 76%
    17:00 +29°C° 0.4 mm 3 mps 734 mmHg 83%
    18:00 +28°C° 0.3 mm 3 mps 734 mmHg 84%
    19:00 +28°C° 0.3 mm 3 mps 735 mmHg 85%
    20:00 +28°C° 0.3 mm 3 mps 735 mmHg 86%
    21:00 +28°C° 0.1 mm 3 mps 735 mmHg 86%
    22:00 +28°C° 0.1 mm 3 mps 736 mmHg 87%
    23:00 +28°C° 0.1 mm 3 mps 736 mmHg 87%

    26 May, Sunday

    Time Temperature Precipitation Wind Pressure Humidity
    00:00 +27°C° 1.6 mm 3 mps 735 mmHg 88%
    01:00 +27°C° 1.6 mm 3 mps 735 mmHg 89%
    02:00 +27°C° 1.6 mm 4 mps 734 mmHg 90%
    03:00 +27°C° 1.2 mm 4 mps 734 mmHg 91%
    04:00 +27°C° 1.2 mm 4 mps 735 mmHg 91%
    05:00 +27°C° 1.2 mm 4 mps 735 mmHg 91%
    06:00 +28°C° 0.3 mm 3 mps 735 mmHg 87%
    07:00 +29°C° 0.3 mm 3 mps 736 mmHg 84%
    08:00 +30°C° 0.3 mm 3 mps 736 mmHg 80%
    09:00 +31°C° 0 mm 3 mps 736 mmHg 73%
    10:00 +34°C° 0 mm 2 mps 736 mmHg 67%
    11:00 +35°C° 0 mm 2 mps 736 mmHg 60%
    12:00 +35°C° 0 mm 2 mps 735 mmHg 60%
    13:00 +35°C° 0 mm 2 mps 735 mmHg 59%
    14:00 +35°C° 0 mm 2 mps 734 mmHg 58%
    15:00 +34°C° 0.1 mm 2 mps 734 mmHg 64%
    16:00 +31°C° 0.1 mm 2 mps 734 mmHg 70%
    17:00 +30°C° 0.1 mm 3 mps 734 mmHg 76%
    18:00 +30°C° 0.2 mm 2 mps 735 mmHg 78%
    19:00 +29°C° 0.2 mm 1 mps 735 mmHg 80%
    20:00 +28°C° 0.2 mm 1 mps 736 mmHg 83%
    21:00 +28°C° 0.1 mm 1 mps 736 mmHg 83%
    22:00 +28°C° 0.1 mm 2 mps 736 mmHg 84%
    23:00 +28°C° 0.1 mm 2 mps 736 mmHg 85%

    27 May, Monday

    Time Temperature Precipitation Wind Pressure Humidity
    00:00 +28°C° 0 mm 2 mps 735 mmHg 86%
    01:00 +27°C° 0 mm 3 mps 735 mmHg 87%
    02:00 +27°C° 0 mm 3 mps 734 mmHg 88%
    03:00 +27°C° 0 mm 3 mps 734 mmHg 88%
    04:00 +27°C° 0 mm 3 mps 735 mmHg 88%
    05:00 +27°C° 0 mm 3 mps 735 mmHg 89%
    06:00 +28°C° 0 mm 3 mps 735 mmHg 84%
    07:00 +29°C° 0 mm 3 mps 736 mmHg 80%
    08:00 +30°C° 0 mm 3 mps 736 mmHg 75%
    09:00 +31°C° 0 mm 2 mps 736 mmHg 71%
    10:00 +34°C° 0 mm 2 mps 736 mmHg 66%
    11:00 +35°C° 0 mm 2 mps 736 mmHg 61%
    12:00 +34°C° 0.1 mm 2 mps 735 mmHg 64%
    13:00 +34°C° 0.1 mm 3 mps 735 mmHg 66%
    14:00 +33°C° 0.1 mm 3 mps 734 mmHg 69%
    15:00 +33°C° 0.3 mm 3 mps 734 mmHg 71%
    16:00 +31°C° 0.3 mm 3 mps 734 mmHg 73%
    17:00 +30°C° 0.3 mm 3 mps 734 mmHg 76%
    18:00 +30°C° 0.5 mm 2 mps 735 mmHg 77%
    19:00 +29°C° 0.5 mm 1 mps 735 mmHg 79%
    20:00 +29°C° 0.5 mm 1 mps 736 mmHg 80%
    21:00 +28°C° 0.3 mm 1 mps 736 mmHg 81%
    22:00 +28°C° 0.3 mm 1 mps 736 mmHg 83%
    23:00 +28°C° 0.3 mm 1 mps 736 mmHg 84%
    Show more